This demonstration page uses our WeatherBlox Daily Observations layout. Learn more.

Left ArrowRight Arrow

Hourly Observations for June 21, 2017

Temp ( °F °C ) Dew Point ( °F °C ) Humidity (%) Winds ( mph kmh ) Pressure ( in mb ) Visibility ( mi km ) Precip ( " mm )
12:53 am 00:53 Clear 70 21.1 50 10 49 49 W 10 17 29.68 1005 10 16 0.00 0.00
1:53 am 01:53 Clear 66 18.9 46 7.8 49 49 NW 20 31 29.73 1007 10 16 0.00 0.00
2:53 am 02:53 Clear 60 15.6 45 7.2 58 58 NW 17 28 29.76 1008 10 16 0.00 0.00
3:53 am 03:53 Clear 57 13.9 46 7.8 67 67 SW 10 17 29.82 1010 10 16 0.00 0.00
4:53 am 04:53 Clear 57 13.9 45 7.2 64 64 W 5 7 29.83 1010 10 16 0.00 0.00
5:53 am 05:53 Mostly Cloudy 57 13.9 43 6.1 60 60 NW 8 13 29.87 1011 10 16 0.00 0.00
6:53 am 06:53 Mostly Cloudy 58 14.4 43 6.1 58 58 Calm 29.88 1012 10 16 0.00 0.00
7:53 am 07:53 Mostly Cloudy 61 16.1 41 5 48 48 Calm 29.90 1013 10 16 0.00 0.00
8:53 am 08:53 Partly Cloudy 62 16.7 40 4.4 44 44 Calm 29.91 1013 10 16 0.00 0.00
9:53 am 09:53 Partly Cloudy 64 17.8 35 1.7 34 34 Calm 29.91 1013 10 16 0.00 0.00
10:53 am 10:53 Partly Cloudy 67 19.4 34 1.1 30 30 NW 7 11 29.89 1012 10 16 0.00 0.00
11:53 am 11:53 Sunny 69 20.6 35 1.7 29 29 WSW 6 9 29.86 1011 10 16 0.00 0.00
12:53 pm 12:53 Sunny 72 22.2 36 2.2 27 27 VRB 7 11 29.84 1011 10 16 0.00 0.00
1:53 pm 13:53 Sunny 74 23.3 37 2.8 26 26 SW 8 13 29.81 1010 10 16 0.00 0.00
2:53 pm 14:53 Sunny 75 23.9 39 3.9 27 27 SSW 10 17 29.79 1009 10 16 0.00 0.00
3:53 pm 15:53 Sunny 79 26.1 39 3.9 24 24 W 12 19 29.75 1007 10 16 0.00 0.00
4:53 pm 16:53 Sunny 77 25 40 4.4 26 26 SW 10 17 29.72 1007 10 16 0.00 0.00
5:53 pm 17:53 Mostly Sunny 81 27.2 32 0 17 17 WNW 21 33 29.70 1006 10 16 0.00 0.00
6:00 pm 18:00 Mostly Sunny 79 26 28 -2 16 16 WNW 23 37 29.56 1001 10 16 0.00 0.00
6:53 pm 18:53 Sunny 68 20 40 4.4 36 36 N 20 31 29.76 1008 10 16 0.00 0.00
7:53 pm 19:53 Partly Cloudy 64 17.8 41 5 43 43 E 9 15 29.79 1009 10 16 0.00 0.00
8:53 pm 20:53 Sunny 63 17.2 41 5 45 45 ENE 3 6 29.83 1010 10 16 0.00 0.00
9:53 pm 21:53 Mostly Cloudy 62 16.7 40 4.4 44 44 NNE 6 9 29.86 1011 10 16 0.00 0.00
10:27 pm 22:27 Cloudy 59 15 41 5 51 51 NNE 17 28 29.88 1012 10 16 0.00 0.00
10:53 pm 22:53 Cloudy 58 14.4 41 5 53 53 NE 12 19 29.90 1013 10 16 0.00 0.00
11:53 pm 23:53 Clear 56 13.3 41 5 57 57 ENE 8 13 29.92 1013 10 16 0.00 0.00

Powered by AerisWeather